Wind_Speed
16 17 15 13 12 10 14 17 19 19 18 17 15 17 20 22 27 34 33 35 31 32 33 31 30 30 29 30 32 32 36 38 38
12 14 11 11 13 12 8 12 23 24 24 21 20 19 18 22 24 24 27 30 32 34 34 32 32 31 31 35 36 36 38 37 35
5 10 11 11 10 11 13 12 11 20 25 25 24 21 20 20 21 24 26 28 27 27 28 30 31 32 33 36 36 39 40 42 44
5 9 12 11 10 10 11 12 14 13 15 23 25 24 23 23 23 23 23 23 27 27 28 30 33 33 34 38 38 39 43 44 45
5 10 14 13 11 11 12 12 12 13 14 14 14 15 16 18 23 26 25 26 28 27 27 29 30 33 35 36 38 40 42 45 46
8 13 19 17 14 14 14 14 15 15 18 21 19 15 9 7 5 7 14 21 26 27 29 31 33 34 36 38 40 43 43 39 42
8 12 17 19 16 15 16 16 17 16 15 11 7 5 6 6 5 5 6 7 9 12 15 20 23 25 27 29 29 31 34 40 44
8 10 14 18 15 14 14 15 16 15 13 10 7 5 5 5 3 2 2 5 9 12 14 16 19 23 25 28 30 34 38 35 37
8 8 11 13 11 9 9 9 8 7 6 4 2 1 1 2 3 3 5 7 10 12 14 16 18 20 22 24 26 30 33 39 40
9 9 8 9 8 8 7 7 7 6 5 5 5 5 5 4 4 4 6 8 9 12 15 16 18 22 25 28 31 33 38 43 46
10 8 7 8 9 9 9 9 9 8 8 8 7 5 3 3 4 6 8 10 13 16 18 16 19 22 24 28 30 35 41 44 46
10 8 8 8 9 10 10 9 9 10 9 7 5 4 4 4 6 8 10 15 16 19 20 20 21 23 27 31 34 38 40 41 42
14 10 9 10 10 10 10 10 10 10 8 4 2 2 4 8 8 12 15 16 19 21 20 21 25 29 37 36 41 39 35 38 43
17 12 10 13 12 11 10 8 8 7 4 3 2 7 8 13 16 18 21 23 25 26 26 30 33 35 38 41 43 39 36 38 46
20 16 13 13 12 11 10 8 9 3 3 4 8 12 15 21 22 25 26 28 29 31 34 36 38 41 46 49 42 37 38 42 49
24 21 17 15 13 11 10 12 5 6 7 10 16 19 20 23 21 23 28 31 30 35 41 47 47 48 51 55 48 42 42 43 50
26 24 22 17 15 14 11 9 10 12 11 12 11 15 17 20 20 20 25 33 39 45 49 52 55 59 64 56 50 47 46 45 49
27 24 22 20 18 15 12 9 11 12 12 12 16 14 19 23 25 29 33 36 42 46 52 56 60 67 70 64 57 50 46 47 49
27 24 21 19 16 15 12 11 14 12 13 14 16 19 24 27 32 40 37 41 45 48 55 59 63 68 76 70 62 56 51 49 53
28 20 19 18 15 14 13 15 16 15 15 18 18 24 27 31 34 42 39 47 50 49 58 63 69 73 77 79 70 63 54 51 53
Wind_Direction
103 106 102 106 125 144 200 208 209 207 199 196 186 181 185 197 202 209 213 210 214 222 223 228 238 247 249 254 257 260 262 266 265
113 110 106 99 101 112 125 189 210 212 212 211 202 199 198 196 201 208 217 224 227 230 235 242 244 249 255 258 260 264 264 268 268
119 116 118 119 122 116 109 106 154 201 209 207 211 212 211 212 212 215 221 223 227 234 238 243 245 249 254 259 263 264 266 269 274
157 143 125 121 119 124 117 104 107 125 182 203 211 214 215 219 225 231 233 235 235 240 244 247 249 254 260 262 264 265 270 273 275
170 147 127 119 125 127 127 126 120 116 116 138 172 200 218 228 234 234 235 239 240 244 246 251 255 261 264 265 266 267 271 275 280
165 150 130 120 119 118 116 118 123 122 121 123 122 124 121 139 156 191 223 238 245 252 257 262 265 266 268 269 267 268 271 274 279
159 139 123 115 110 108 109 110 112 115 124 135 141 143 141 146 124 143 181 204 223 237 245 252 256 264 272 281 284 281 283 287 290
181 143 126 115 114 109 103 101 99 99 100 100 98 90 75 58 37 25 298 263 265 272 283 287 275 277 290 283 285 288 298 298 299
193 169 135 120 117 107 98 90 84 82 82 86 82 54 40 9 5 330 303 296 291 293 297 298 300 300 297 295 294 291 290 290 298
205 187 150 136 120 106 96 94 108 126 131 124 101 82 69 59 34 355 338 320 315 308 302 309 307 302 300 299 301 301 298 300 302
206 175 152 124 116 111 114 118 124 126 116 108 103 99 71 20 356 331 313 312 311 309 305 304 307 310 308 306 310 308 306 307 306
184 165 145 122 122 127 139 144 136 126 117 117 122 77 41 8 355 339 321 310 309 307 312 316 314 313 317 317 316 317 311 308 309
166 164 154 143 143 148 149 139 131 129 132 138 107 20 1 350 348 331 326 325 326 329 317 314 317 317 320 315 317 319 312 312 316
165 164 170 156 155 155 157 148 149 147 163 222 300 344 326 325 319 322 324 326 326 330 325 324 328 328 332 333 332 322 318 317 322
182 179 194 191 183 179 170 163 169 200 287 336 309 290 307 317 315 317 325 337 334 333 334 336 339 341 340 338 335 323 320 323 324
193 183 192 200 197 198 189 177 206 261 294 296 310 303 304 311 322 323 334 342 347 348 349 351 347 344 346 343 337 331 320 319 325
197 184 179 176 167 172 178 207 247 263 290 307 329 341 350 353 352 345 349 353 355 354 353 353 351 348 344 343 339 331 324 322 325
187 179 175 170 173 185 201 237 261 269 279 306 326 330 331 334 332 332 339 336 341 345 349 350 346 348 348 342 340 332 325 319 323
188 189 188 192 196 201 217 245 262 272 290 313 328 323 315 316 328 333 330 330 335 338 342 344 344 345 347 347 343 336 327 321 318
197 200 199 210 223 237 230 249 260 279 292 299 314 318 318 319 319 332 329 329 326 329 336 340 341 339 344 347 344 338 331 327 325
Height
10951 10949 10950 10950 10951 10952 10953 10955 10957 10959 10963 10967 10970 10973 10976 10978 10981 10984 10987 10990 10992 10995 10997 10998 11000 11001 11002 11003 11003 11003 11003 11003 11002
10953 10952 10952 10952 10952 10952 10953 10953 10955 10958 10961 10965 10968 10972 10975 10977 10980 10982 10984 10986 10989 10993 10994 10995 10996 10997 10998 10999 10998 10999 10997 10996 10995
10957 10955 10953 10954 10955 10954 10954 10953 10953 10955 10959 10963 10967 10970 10973 10976 10978 10981 10983 10984 10987 10990 10992 10992 10993 10992 10993 10993 10992 10990 10990 10989 10987
10959 10957 10955 10955 10956 10956 10955 10955 10955 10955 10957 10961 10965 10968 10971 10974 10977 10978 10981 10983 10985 10984 10987 10987 10987 10987 10986 10985 10984 10984 10982 10980 10978
10960 10959 10955 10956 10957 10957 10958 10958 10959 10958 10959 10960 10963 10967 10970 10972 10973 10974 10976 10979 10979 10980 10981 10982 10982 10982 10981 10980 10979 10977 10975 10972 10969
10962 10961 10956 10956 10958 10959 10959 10959 10960 10961 10963 10964 10967 10969 10970 10971 10970 10970 10971 10973 10974 10976 10976 10977 10976 10976 10974 10972 10970 10968 10966 10964 10961
10962 10961 10958 10956 10958 10960 10960 10960 10961 10963 10965 10967 10968 10969 10970 10970 10969 10970 10971 10972 10972 10973 10972 10971 10971 10970 10969 10967 10965 10963 10961 10958 10953
10962 10960 10959 10956 10959 10960 10961 10962 10963 10964 10966 10967 10968 10968 10968 10969 10969 10969 10970 10971 10971 10971 10970 10968 10967 10966 10964 10962 10960 10957 10954 10949 10944
10962 10961 10958 10956 10958 10960 10961 10962 10963 10964 10966 10968 10969 10969 10969 10970 10970 10971 10971 10970 10969 10968 10966 10965 10964 10962 10960 10957 10954 10949 10944 10939 10934
10961 10960 10958 10957 10958 10960 10962 10963 10965 10966 10968 10969 10969 10969 10970 10969 10969 10970 10970 10969 10968 10966 10963 10962 10960 10958 10955 10951 10947 10943 10937 10931 10924
10959 10958 10957 10957 10959 10960 10963 10964 10966 10967 10968 10969 10970 10970 10970 10970 10970 10969 10968 10967 10965 10963 10961 10959 10956 10954 10951 10947 10942 10936 10929 10922 10914
10956 10956 10957 10958 10960 10962 10964 10966 10968 10969 10970 10970 10970 10970 10970 10970 10969 10969 10968 10966 10964 10961 10959 10956 10953 10950 10946 10940 10933 10926 10918 10910 10901
10954 10956 10957 10959 10961 10963 10965 10966 10967 10968 10968 10969 10969 10969 10970 10970 10969 10968 10966 10964 10962 10959 10955 10952 10949 10944 10938 10930 10922 10912 10906 10898 10889
10952 10955 10957 10959 10961 10963 10965 10966 10967 10967 10967 10968 10969 10970 10969 10968 10967 10965 10964 10962 10959 10956 10952 10948 10942 10935 10928 10919 10909 10900 10893 10885 10877
10950 10953 10956 10958 10960 10962 10963 10965 10966 10966 10967 10968 10968 10967 10966 10964 10962 10961 10959 10956 10952 10948 10944 10939 10932 10925 10917 10908 10897 10888 10881 10873 10865
10946 10948 10952 10955 10958 10960 10961 10962 10963 10964 10965 10966 10965 10964 10962 10960 10957 10955 10953 10950 10945 10941 10936 10929 10922 10914 10906 10896 10886 10878 10869 10862 10854
10943 10945 10947 10951 10953 10958 10959 10960 10961 10961 10962 10962 10961 10959 10957 10954 10952 10949 10947 10942 10937 10932 10926 10919 10913 10905 10895 10887 10877 10868 10857 10849 10842
10940 10942 10945 10948 10950 10953 10956 10957 10957 10958 10958 10957 10956 10954 10952 10949 10946 10943 10939 10936 10931 10925 10918 10912 10904 10895 10886 10875 10865 10857 10848 10840 10833
10938 10941 10943 10946 10948 10949 10951 10953 10953 10954 10953 10953 10952 10950 10946 10943 10940 10936 10932 10928 10923 10917 10911 10903 10895 10887 10879 10867 10857 10846 10837 10828 10821
10934 10937 10940 10942 10944 10946 10946 10947 10948 10949 10948 10947 10946 10944 10942 10938 10935 10931 10926 10921 10916 10910 10901 10894 10886 10879 10868 10857 10847 10837 10828 10820 10810